sat.trackr.live / text

‹ back to catalog

STARLINK-36391

NORAD 67591 · 2026-018C

PAYLOAD ACTIVE UNKNOWN

§ Identity

Operator
Country
US
Launch date
2026-01-29
Launch site
AFWTR
Launch vehicle
Mass (kg)
RCS (m²)

Purposes: comms

External: N2YO · Heavens-Above · Gunter

§ Orbital elements

Epoch: 2026-09-19T10:49:06.497760Z

Period
93.91 min
Inclination
97.2868°
Eccentricity
0.0000673
Mean motion
15.33447556 rev/d
Perigee alt
465.1 km
Apogee alt
466.0 km
Semi-major
6,843.7 km
B*
6.3215e-4
RAAN
325.8344°
Arg perigee
69.8489°
Mean anomaly
290.2826°
Rev number
3,702

§ Raw data

STARLINK-363911 67591U 26018C   26262.45076965  .00020390  00000+0  63215-3 0  99982 67591  97.2868 325.8344 0000673  69.8489 290.2826 15.33447556 37023

JSON: /api/v1/satellites/67591 · /tle

For live sub-satellite position, see the globe view (requires WebGL).

§ Visibility from observer

Set your observer location to see the next 7 days of passes ≥ 10°. The values pass through the URL so the page stays shareable.

No JS? Fill the form by hand. The geolocation button needs JavaScript.